Atlantic, IA

9:07 PM CDT on April 25, 2018 (GMT -0500)
Atlantic Municipal

Weather History for KAIO - November, 2013

Change the Weather History Date:

Saturday, November 9, 2013

  Actual Average Record
Temperature  
Mean Temperature 46 °F -  
Max Temperature 57 °F 48 °F 73 °F (1999)
Min Temperature 33 °F 29 °F 19 °F (2017)
Degree Days  
Heating Degree Days 19    
Moisture  
Dew Point 33 °F    
Average Humidity 61    
Maximum Humidity 87    
Minimum Humidity 41    
Precipitation  
Precipitation 0.00 in - - ()
Sea Level Pressure  
Sea Level Pressure 30.10 in    
Wind  
Wind Speed 11 mph (WNW)    
Max Wind Speed 18 mph    
Max Gust Speed 26 mph    
Visibility 10 miles    
Events      
Averages and records for this station are not official NWS values.
T = Trace of Precipitation, MM = Missing Value Source: NWS Daily Summary

Daily Weather History Graph

Daily Weather History Graph

Search for Another Location

Airport or City:

Astronomy

Nov. 09, 2013 Rise Set
Actual Time 7:01 AM CST 5:05 PM CST
Civil Twilight 6:32 AM CST 5:35 PM CST
Nautical Twilight 5:59 AM CST 6:08 PM CST
Astronomical Twilight 5:26 AM CST 6:40 PM CST
Moon 12:38 PM CST (11/9) 11:38 PM CST (11/9)
Length of Visible Light 11h 02m
Length of Day
10h 04m
Waxing Crescent, 44% of the Moon is Illuminated
Nov 9
Waxing Crescent
Nov 9
First Quarter
Nov 17
Full
Nov 25
Last Quarter
Dec 2
New

Hourly Weather History & Observations

Time (CST) Temp. Windchill Dew Point Humidity Pressure Visibility Wind Dir Wind Speed Gust Speed Precip Events Conditions
12:15 AM 44.6 °F 39.7 °F 35.6 °F 71% 29.89 in 10.0 mi West 9.2 mph - N/A   Clear
12:35 AM 42.8 °F 37.5 °F 35.6 °F 76% 29.90 in 10.0 mi West 9.2 mph - N/A   Clear
12:55 AM 41.0 °F 35.2 °F 33.8 °F 76% 29.90 in 10.0 mi WSW 9.2 mph - N/A   Clear
1:15 AM 42.8 °F 37.5 °F 33.8 °F 70% 29.90 in 10.0 mi WSW 9.2 mph - N/A   Clear
1:35 AM 42.8 °F 37.5 °F 33.8 °F 70% 29.90 in 10.0 mi WSW 9.2 mph - N/A   Clear
1:55 AM 42.8 °F 37.0 °F 33.8 °F 70% 29.90 in 10.0 mi WSW 10.4 mph - N/A   Clear
2:15 AM 42.8 °F 36.6 °F 33.8 °F 70% 29.91 in 10.0 mi WSW 11.5 mph - N/A   Clear
2:35 AM 42.8 °F 36.6 °F 33.8 °F 70% 29.92 in 10.0 mi WSW 11.5 mph - N/A   Clear
2:55 AM 42.8 °F 37.0 °F 33.8 °F 70% 29.92 in 10.0 mi WSW 10.4 mph - N/A   Clear
3:15 AM 42.8 °F 37.0 °F 33.8 °F 70% 29.93 in 10.0 mi WSW 10.4 mph - N/A   Clear
3:35 AM 42.8 °F 37.0 °F 33.8 °F 70% 29.93 in 10.0 mi West 10.4 mph - N/A   Clear
3:55 AM 42.8 °F 37.5 °F 33.8 °F 70% 29.94 in 10.0 mi WSW 9.2 mph - N/A   Clear
4:15 AM 42.8 °F 37.0 °F 33.8 °F 70% 29.94 in 10.0 mi West 10.4 mph - N/A   Clear
4:35 AM 44.6 °F 38.4 °F 33.8 °F 66% 29.95 in 10.0 mi West 12.7 mph - N/A   Clear
4:55 AM 42.8 °F 36.2 °F 32.0 °F 66% 29.96 in 10.0 mi West 12.7 mph - N/A   Clear
5:15 AM 42.8 °F 36.6 °F 32.0 °F 66% 29.97 in 10.0 mi West 11.5 mph - N/A   Clear
5:35 AM 44.6 °F 39.2 °F 32.0 °F 61% 29.98 in 10.0 mi West 10.4 mph - N/A   Clear
5:55 AM 44.6 °F 38.8 °F 32.0 °F 61% 29.98 in 10.0 mi West 11.5 mph - N/A   Clear
6:15 AM 41.0 °F 34.7 °F 32.0 °F 70% 29.99 in 10.0 mi West 10.4 mph - N/A   Clear
6:35 AM 41.0 °F 34.3 °F 32.0 °F 70% 30.00 in 10.0 mi West 11.5 mph - N/A   Clear
6:55 AM 41.0 °F 34.3 °F 32.0 °F 70% 30.01 in 10.0 mi West 11.5 mph - N/A   Clear
7:15 AM 41.0 °F 34.7 °F 32.0 °F 70% 30.02 in 10.0 mi West 10.4 mph - N/A   Clear
7:35 AM 41.0 °F 34.3 °F 32.0 °F 70% 30.04 in 10.0 mi West 11.5 mph - N/A   Clear
7:55 AM 42.8 °F 36.6 °F 32.0 °F 66% 30.05 in 10.0 mi West 11.5 mph - N/A   Clear
8:15 AM 44.6 °F 38.8 °F 32.0 °F 61% 30.06 in 10.0 mi West 11.5 mph - N/A   Clear
8:35 AM 46.4 °F 41.5 °F 33.8 °F 62% 30.07 in 10.0 mi West 10.4 mph - N/A   Clear
8:55 AM 48.2 °F - 33.8 °F 58% 30.07 in 10.0 mi West 13.8 mph 19.6 mph N/A   Clear
9:15 AM 48.2 °F - 33.8 °F 58% 30.07 in 10.0 mi WNW 16.1 mph - N/A   Clear
9:35 AM 50.0 °F - 33.8 °F 54% 30.08 in 10.0 mi NW 17.3 mph 26.5 mph N/A   Clear
9:55 AM 50.0 °F - 35.6 °F 58% 30.09 in 10.0 mi NW 18.4 mph 26.5 mph N/A   Clear
10:15 AM 51.8 °F - 35.6 °F 54% 30.10 in 10.0 mi NW 17.3 mph - N/A   Clear
10:35 AM 51.8 °F - 35.6 °F 54% 30.11 in 10.0 mi WNW 16.1 mph 23.0 mph N/A   Clear
10:55 AM 53.6 °F - 35.6 °F 51% 30.12 in 10.0 mi NW 13.8 mph 20.7 mph N/A   Clear
11:15 AM 53.6 °F - 35.6 °F 51% 30.12 in 10.0 mi WNW 12.7 mph 19.6 mph N/A   Clear
11:35 AM 55.4 °F - 35.6 °F 47% 30.12 in 10.0 mi WNW 10.4 mph 19.6 mph N/A   Clear
11:55 AM 55.4 °F - 33.8 °F 44% 30.12 in 10.0 mi WNW 11.5 mph 18.4 mph N/A   Clear
12:15 PM 55.4 °F - 33.8 °F 44% 30.12 in 10.0 mi West 16.1 mph 21.9 mph N/A   Clear
12:35 PM 57.2 °F - 33.8 °F 41% 30.12 in 10.0 mi West 17.3 mph 23.0 mph N/A   Clear
12:55 PM 57.2 °F - 33.8 °F 41% 30.12 in 10.0 mi WNW 15.0 mph 23.0 mph N/A   Clear
1:15 PM 57.2 °F - 33.8 °F 41% 30.12 in 10.0 mi West 16.1 mph - N/A   Clear
1:35 PM 57.2 °F - 33.8 °F 41% 30.12 in 10.0 mi WNW 17.3 mph - N/A   Clear
1:55 PM 57.2 °F - 33.8 °F 41% 30.12 in 10.0 mi West 15.0 mph - N/A   Clear
2:15 PM 57.2 °F - 33.8 °F 41% 30.13 in 10.0 mi WNW 13.8 mph - N/A   Clear
2:35 PM 57.2 °F - 33.8 °F 41% 30.13 in 10.0 mi West 12.7 mph - N/A   Clear
2:55 PM 57.2 °F - 33.8 °F 41% 30.13 in 10.0 mi WNW 12.7 mph 21.9 mph N/A   Clear
3:15 PM 57.2 °F - 33.8 °F 41% 30.14 in 10.0 mi West 12.7 mph 19.6 mph N/A   Clear
3:35 PM 57.2 °F - 33.8 °F 41% 30.14 in 10.0 mi WNW 12.7 mph 18.4 mph N/A   Clear
3:55 PM 57.2 °F - 33.8 °F 41% 30.15 in 10.0 mi WNW 13.8 mph - N/A   Clear
4:15 PM 57.2 °F - 35.6 °F 44% 30.15 in 10.0 mi West 9.2 mph - N/A   Clear
4:35 PM 55.4 °F - 33.8 °F 44% 30.16 in 10.0 mi WNW 10.4 mph 18.4 mph N/A   Clear
4:55 PM 53.6 °F - 33.8 °F 47% 30.17 in 10.0 mi NW 8.1 mph - N/A   Clear
5:15 PM 51.8 °F - 33.8 °F 50% 30.17 in 10.0 mi WNW 8.1 mph - N/A   Clear
5:35 PM 50.0 °F - 33.8 °F 54% 30.18 in 10.0 mi WNW 8.1 mph - N/A   Clear
5:55 PM 46.4 °F 43.5 °F 33.8 °F 62% 30.20 in 10.0 mi NW 5.8 mph - N/A   Clear
6:15 PM 46.4 °F 43.5 °F 33.8 °F 62% 30.21 in 10.0 mi WNW 5.8 mph - N/A   Clear
6:35 PM 46.4 °F 43.5 °F 33.8 °F 62% 30.21 in 10.0 mi WNW 5.8 mph - N/A   Clear
6:55 PM 42.8 °F 38.6 °F 33.8 °F 70% 30.22 in 8.0 mi WNW 6.9 mph - N/A   Clear
7:15 PM 44.6 °F 39.7 °F 33.8 °F 66% 30.23 in 3.0 mi WNW 9.2 mph - N/A   Haze
7:35 PM 42.8 °F 37.5 °F 33.8 °F 70% 30.24 in 10.0 mi NW 9.2 mph - N/A   Clear
8:35 PM 41.0 °F 37.1 °F 33.8 °F 76% 30.27 in 10.0 mi NNW 5.8 mph - N/A   Clear
8:55 PM 41.0 °F 36.4 °F 33.8 °F 76% 30.27 in 10.0 mi NNW 6.9 mph - N/A   Clear
9:15 PM 41.0 °F 37.1 °F 33.8 °F 76% 30.28 in 10.0 mi NW 5.8 mph - N/A   Clear
9:35 PM 37.4 °F 33.8 °F 32.0 °F 81% 30.29 in 10.0 mi North 4.6 mph - N/A   Clear
9:55 PM 39.2 °F 33.0 °F 32.0 °F 75% 30.30 in 10.0 mi NNW 9.2 mph - N/A   Clear
10:15 PM 41.0 °F 37.1 °F 32.0 °F 70% 30.31 in 10.0 mi North 5.8 mph - N/A   Clear
10:35 PM 39.2 °F 35.0 °F 32.0 °F 75% 30.32 in 10.0 mi North 5.8 mph - N/A   Clear
10:55 PM 37.4 °F 34.9 °F 32.0 °F 81% 30.33 in 10.0 mi NNE 3.5 mph - N/A   Clear
11:15 PM 35.6 °F 29.9 °F 30.2 °F 81% 30.33 in 10.0 mi North 6.9 mph - N/A   Clear
11:35 PM 37.4 °F 32.8 °F 30.2 °F 75% 30.33 in 10.0 mi North 5.8 mph - N/A   Clear
11:55 PM 33.8 °F 28.6 °F 30.2 °F 87% 30.33 in 10.0 mi North 5.8 mph - N/A   Clear